Total_Precipitation_Accumulation
0.01 0.02 0.03 0.23 0.47 1.44 3.62 2.56 4.03 2.76 2.21 1.97 2.09 2.15 3.34 1.99 1.43 1.94 1.87 1.63 1.14 0.46 0.69 0.50 0.27 0.17 1.58 0.70 0.40 0.26 0.15 0.54 0.17 1.53 1.03 0.56 0.38 0.23 0.47 0.45 0.40 0.37 0.43 0.51 0.70 0.91 1.16 0.58 0.56 0.82 0.82 0.47 0.44 0.45 0.45 0.17 0.05 0.05 0.05 0.04 0.03 0.02 0.06 0.11 0.22 0.17 0.17 0.09 0.05 0.06 0.14 0.29 0.37 0.32 0.22 0.16 0.10 0.16 0.19 0.13 0.18 0.26 0.27 0.19 0.15 0.31 0.41 0.52 0.36 0.25 0.31 0.40 0.48 0.45 0.39 0.41 0.41
0.26 0.05 0.05 0.34 0.64 2.46 2.48 1.47 1.67 2.14 1.68 1.85 2.02 2.09 1.97 1.64 1.94 1.36 1.29 2.73 0.82 0.42 0.17 0.20 0.28 0.46 0.29 0.07 0.08 0.07 0.11 0.12 0.28 0.16 0.26 0.28 0.36 0.37 0.25 0.28 0.30 0.33 0.36 0.41 0.52 0.63 0.57 0.75 0.64 0.55 0.64 0.62 0.29 0.45 0.50 0.12 0.06 0.03 0.05 0.04 0.02 0.05 0.11 0.16 0.16 0.13 0.09 0.06 0.07 0.15 0.17 0.30 0.32 0.26 0.19 0.14 0.14 0.20 0.15 0.17 0.15 0.15 0.37 0.26 0.18 0.22 0.29 0.25 0.36 0.34 0.45 0.54 0.59 0.43 0.50 0.34 0.54
0.08 0.09 0.28 0.30 0.89 0.94 1.84 1.68 2.50 1.94 2.33 2.00 1.85 2.49 1.86 1.81 1.51 1.41 2.05 2.17 0.64 0.19 0.21 0.56 0.52 0.29 0.20 0.45 0.23 0.11 0.29 0.14 0.12 0.09 0.35 0.32 0.52 0.98 0.44 0.19 0.21 0.18 0.20 0.37 0.47 0.51 0.54 0.68 0.37 0.43 0.53 0.34 0.13 0.16 0.12 0.09 0.07 0.08 0.03 0.02 0.08 0.12 0.13 0.16 0.06 0.12 0.07 0.16 0.15 0.13 0.16 0.13 0.21 0.26 0.22 0.15 0.25 0.22 0.16 0.24 0.18 0.27 0.29 0.24 0.24 0.41 0.31 0.27 0.36 0.31 0.38 0.58 0.53 0.51 0.52 0.44 0.39
0.14 0.12 0.54 0.37 2.71 0.84 2.49 2.21 1.46 1.76 2.05 1.26 1.74 1.47 1.89 1.19 1.21 1.45 1.37 0.69 0.49 0.47 0.43 0.27 1.10 0.29 0.56 0.23 0.11 0.05 0.17 0.23 0.09 0.03 0.51 0.33 0.21 0.34 0.29 0.17 0.15 0.19 0.22 0.32 0.47 0.38 0.34 0.28 0.19 0.23 0.33 0.16 0.13 0.19 0.13 0.10 0.05 0.04 0.04 0.07 0.07 0.12 0.09 0.10 0.10 0.12 0.14 0.14 0.09 0.09 0.10 0.18 0.16 0.23 0.20 0.16 0.18 0.19 0.24 0.17 0.20 0.32 0.36 0.18 0.30 0.30 0.26 0.35 0.20 0.32 0.50 0.55 0.47 0.43 0.40 0.58 0.36
0.10 0.09 0.39 1.00 1.76 2.71 1.59 1.96 1.62 1.87 2.04 1.68 2.47 1.47 1.53 1.54 1.27 1.19 1.12 0.64 0.56 0.28 0.45 0.38 0.45 0.60 0.60 0.56 0.23 0.29 0.29 0.08 0.10 0.07 0.13 0.17 0.12 0.26 0.25 0.18 0.16 0.13 0.18 0.25 0.24 0.23 0.31 0.18 0.21 0.23 0.15 0.12 0.08 0.14 0.09 0.06 0.05 0.05 0.04 0.05 0.04 0.07 0.08 0.12 0.09 0.11 0.06 0.10 0.11 0.21 0.23 0.23 0.28 0.27 0.28 0.20 0.20 0.18 0.14 0.19 0.21 0.27 0.26 0.30 0.37 0.29 0.25 0.24 0.21 0.32 0.34 0.48 0.49 0.38 0.34 0.42 0.31
0.30 0.20 0.33 1.14 3.62 1.96 1.41 1.51 2.08 1.66 1.93 1.02 2.19 2.74 1.72 1.73 1.61 1.09 0.83 0.98 0.54 0.58 0.42 0.72 0.31 0.19 0.19 0.14 0.03 0.12 0.09 0.29 0.14 0.18 0.08 0.21 0.14 0.09 0.15 0.08 0.15 0.15 0.16 0.18 0.17 0.12 0.31 0.20 0.20 0.12 0.08 0.07 0.04 0.05 0.05 0.04 0.05 0.05 0.08 0.07 0.09 0.07 0.17 0.16 0.15 0.13 0.17 0.07 0.21 0.24 0.32 0.28 0.30 0.29 0.27 0.27 0.31 0.25 0.18 0.21 0.34 0.29 0.22 0.29 0.28 0.23 0.25 0.22 0.28 0.30 0.36 0.33 0.46 0.30 0.45 0.52 0.49
0.41 0.37 1.06 0.89 1.45 1.17 2.33 1.72 1.37 1.53 1.77 1.27 1.99 2.01 1.93 2.16 2.16 1.16 0.95 0.57 0.49 0.49 0.22 0.23 0.05 0.06 0.16 0.14 0.06 0.12 0.06 0.03 0.14 0.07 0.03 0.11 0.09 0.08 0.10 0.16 0.18 0.17 0.19 0.21 0.18 0.22 0.26 0.11 0.10 0.14 0.07 0.07 0.05 0.06 0.05 0.06 0.10 0.07 0.09 0.05 0.05 0.09 0.10 0.11 0.13 0.12 0.26 0.18 0.30 0.26 0.38 0.23 0.24 0.25 0.39 0.32 0.33 0.28 0.27 0.29 0.33 0.34 0.23 0.26 0.27 0.23 0.28 0.15 0.18 0.25 0.35 0.34 0.33 0.38 0.58 0.56 0.64
0.32 1.66 1.59 2.13 3.23 1.93 1.88 1.18 1.53 0.84 1.71 1.29 1.69 1.89 2.34 1.39 1.05 1.36 0.83 0.96 0.46 0.49 0.44 0.13 0.32 0.70 0.64 0.05 0.51 0.25 0.09 0.10 0.07 0.03 0.02 0.05 0.07 0.09 0.13 0.15 0.15 0.20 0.22 0.16 0.18 0.17 0.26 0.09 0.06 0.08 0.05 0.04 0.03 0.05 0.03 0.05 0.09 0.11 0.15 0.12 0.15 0.15 0.10 0.16 0.18 0.18 0.18 0.21 0.23 0.27 0.20 0.23 0.24 0.26 0.47 0.41 0.32 0.35 0.47 0.27 0.32 0.30 0.31 0.24 0.25 0.26 0.34 0.12 0.19 0.48 0.49 0.44 0.47 0.47 0.67 0.59 0.66
0.86 1.01 1.66 1.72 1.88 1.48 1.20 1.56 1.44 0.75 1.67 1.44 1.99 1.72 2.14 1.78 1.12 1.33 1.09 1.55 0.85 0.37 0.34 0.18 0.21 0.66 0.33 0.24 0.33 0.23 0.17 0.05 0.04 0.03 0.04 0.07 0.06 0.09 0.11 0.15 0.11 0.17 0.16 0.17 0.17 0.13 0.16 0.08 0.06 0.09 0.04 0.02 0.03 0.06 0.08 0.07 0.07 0.08 0.08 0.06 0.15 0.17 0.14 0.15 0.20 0.26 0.18 0.14 0.26 0.20 0.22 0.17 0.25 0.35 0.33 0.35 0.33 0.25 0.26 0.33 0.30 0.30 0.26 0.23 0.23 0.27 0.35 0.31 0.39 0.45 0.46 0.44 0.50 0.42 0.46 0.56 0.62
1.18 1.01 2.83 1.75 1.00 1.78 1.10 1.34 1.40 1.72 2.22 1.16 1.89 2.00 1.86 1.55 1.27 1.21 0.69 1.33 1.14 0.43 0.39 0.18 0.15 0.76 0.28 0.37 0.27 0.23 0.25 0.06 0.03 0.07 0.05 0.05 0.04 0.07 0.09 0.12 0.09 0.11 0.13 0.16 0.14 0.07 0.06 0.15 0.07 0.05 0.03 0.03 0.05 0.07 0.05 0.05 0.06 0.11 0.06 0.07 0.11 0.13 0.21 0.16 0.17 0.25 0.19 0.18 0.22 0.23 0.28 0.22 0.32 0.35 0.33 0.26 0.29 0.25 0.23 0.33 0.26 0.22 0.22 0.23 0.18 0.29 0.26 0.27 0.60 0.40 0.52 0.50 0.45 0.42 0.30 0.45 0.51
2.16 1.00 1.05 1.77 1.41 1.51 1.53 1.38 1.56 1.15 1.28 1.40 1.56 2.54 1.96 1.72 1.13 1.74 1.35 1.74 0.34 0.46 0.18 0.10 0.19 0.27 0.19 0.41 0.45 0.26 0.09 0.04 0.04 0.10 0.06 0.04 0.06 0.12 0.11 0.13 0.09 0.09 0.13 0.23 0.12 0.07 0.07 0.09 0.14 0.05 0.08 0.03 0.06 0.04 0.11 0.06 0.07 0.11 0.14 0.08 0.08 0.13 0.11 0.10 0.21 0.14 0.19 0.22 0.18 0.20 0.19 0.22 0.30 0.22 0.23 0.26 0.24 0.12 0.22 0.21 0.24 0.27 0.19 0.19 0.15 0.21 0.20 0.21 0.25 0.31 0.43 0.43 0.32 0.38 0.49 0.41 0.41
1.84 1.77 1.61 2.16 1.43 1.17 1.34 1.63 1.26 1.46 1.66 1.15 2.01 2.20 1.63 1.23 0.91 0.91 1.21 0.79 0.61 0.38 0.25 0.09 0.32 0.14 0.21 0.16 0.40 0.40 0.12 0.06 0.07 0.04 0.07 0.08 0.11 0.06 0.07 0.15 0.11 0.10 0.12 0.10 0.08 0.08 0.05 0.10 0.15 0.21 0.07 0.03 0.05 0.09 0.06 0.11 0.09 0.10 0.07 0.09 0.06 0.13 0.08 0.07 0.13 0.15 0.13 0.13 0.22 0.18 0.27 0.24 0.33 0.24 0.21 0.21 0.18 0.17 0.20 0.18 0.17 0.24 0.17 0.12 0.18 0.25 0.22 0.26 0.37 0.37 0.40 0.39 0.30 0.36 0.50 0.40 0.35
1.37 1.25 1.96 1.19 1.33 1.22 1.06 1.60 1.53 1.30 0.94 1.76 2.06 1.94 1.66 1.41 1.92 1.35 1.34 1.52 0.84 1.17 0.32 0.39 0.07 0.14 0.41 0.43 0.39 0.22 0.19 0.10 0.06 0.04 0.06 0.07 0.07 0.05 0.05 0.06 0.11 0.12 0.09 0.05 0.05 0.04 0.07 0.07 0.08 0.13 0.13 0.06 0.10 0.07 0.09 0.10 0.09 0.06 0.06 0.06 0.05 0.08 0.07 0.14 0.11 0.10 0.12 0.13 0.14 0.13 0.21 0.33 0.27 0.23 0.10 0.08 0.13 0.14 0.13 0.26 0.21 0.29 0.17 0.11 0.14 0.19 0.22 0.29 0.33 0.34 0.39 0.42 0.24 0.34 0.35 0.34 0.37
0.35 0.64 1.42 1.79 0.52 0.95 1.23 1.10 0.92 1.23 1.07 0.76 1.62 1.78 2.13 2.02 1.52 1.73 1.63 1.02 1.33 1.65 0.27 0.18 0.10 0.13 0.22 0.16 0.71 0.34 0.20 0.11 0.09 0.09 0.04 0.05 0.05 0.08 0.07 0.08 0.14 0.10 0.07 0.06 0.05 0.07 0.09 0.09 0.19 0.15 0.13 0.18 0.47 0.19 0.13 0.12 0.07 0.08 0.05 0.06 0.06 0.06 0.07 0.09 0.07 0.14 0.11 0.16 0.12 0.13 0.24 0.19 0.22 0.15 0.16 0.16 0.11 0.13 0.11 0.15 0.14 0.23 0.13 0.13 0.10 0.14 0.17 0.26 0.24 0.35 0.34 0.30 0.24 0.31 0.35 0.35 0.27
0.93 0.41 0.81 0.66 0.86 0.72 0.57 1.31 0.52 0.49 1.44 1.64 1.37 1.89 1.63 1.73 1.45 1.50 2.11 1.41 1.30 0.91 0.30 0.09 0.11 0.13 0.22 0.05 0.31 0.13 0.13 0.12 0.06 0.04 0.07 0.05 0.06 0.07 0.05 0.08 0.10 0.09 0.10 0.06 0.06 0.08 0.08 0.06 0.08 0.12 0.13 0.18 0.25 0.15 0.39 0.12 0.11 0.08 0.06 0.08 0.04 0.09 0.11 0.07 0.07 0.08 0.07 0.17 0.16 0.18 0.23 0.15 0.14 0.14 0.11 0.11 0.06 0.09 0.10 0.05 0.10 0.05 0.09 0.18 0.07 0.16 0.26 0.24 0.26 0.28 0.27 0.18 0.22 0.28 0.18 0.25 0.33
0.11 0.29 0.87 0.87 1.17 1.95 0.51 0.45 0.11 0.24 1.01 2.21 1.60 1.75 1.66 1.37 1.70 1.24 1.34 1.79 1.02 0.36 0.59 0.42 0.07 0.51 0.11 0.11 0.04 0.03 0.04 0.05 0.06 0.05 0.08 0.13 0.10 0.09 0.09 0.10 0.11 0.11 0.09 0.08 0.10 0.06 0.06 0.07 0.10 0.16 0.16 0.13 0.16 0.20 0.28 0.24 0.14 0.09 0.19 0.07 0.13 0.10 0.07 0.11 0.02 0.07 0.11 0.14 0.10 0.17 0.15 0.11 0.18 0.11 0.14 0.11 0.10 0.08 0.06 0.10 0.08 0.12 0.08 0.08 0.13 0.13 0.11 0.15 0.15 0.20 0.18 0.17 0.20 0.29 0.17 0.24 0.41
0.07 0.52 1.41 0.98 1.54 0.88 0.40 1.18 0.45 1.00 0.69 1.26 2.21 1.77 1.78 1.48 1.33 2.09 1.32 1.10 1.19 0.39 1.16 0.43 0.47 0.08 0.03 0.08 0.06 0.07 0.03 0.04 0.06 0.07 0.12 0.25 0.21 0.23 0.19 0.20 0.17 0.16 0.16 0.11 0.10 0.07 0.10 0.11 0.07 0.12 0.12 0.12 0.11 0.24 0.16 0.14 0.16 0.16 0.20 0.25 0.16 0.08 0.12 0.08 0.11 0.07 0.16 0.18 0.17 0.17 0.15 0.21 0.26 0.19 0.24 0.17 0.11 0.08 0.03 0.05 0.08 0.11 0.08 0.11 0.07 0.07 0.10 0.09 0.07 0.23 0.25 0.13 0.13 0.18 0.12 0.21 0.22
0.13 1.05 0.75 1.00 1.12 0.77 0.48 0.74 0.58 0.42 1.16 0.61 1.11 1.80 1.91 1.45 1.07 1.20 1.12 1.48 1.30 0.56 0.56 0.36 0.22 0.05 0.04 0.04 0.04 0.02 0.03 0.04 0.07 0.07 0.14 0.17 0.18 0.22 0.27 0.25 0.16 0.15 0.15 0.15 0.09 0.08 0.10 0.09 0.12 0.11 0.15 0.25 0.13 0.15 0.22 0.19 0.17 0.21 0.17 0.18 0.19 0.15 0.15 0.17 0.22 0.15 0.30 0.22 0.11 0.23 0.34 0.34 0.23 0.39 0.34 0.27 0.24 0.20 0.12 0.09 0.10 0.11 0.11 0.12 0.10 0.05 0.05 0.04 0.11 0.21 0.15 0.13 0.17 0.14 0.05 0.34 0.26
0.21 0.57 0.60 0.73 0.33 0.59 0.21 0.36 0.55 0.78 1.34 0.32 0.53 0.73 1.14 1.12 1.14 1.23 1.56 0.94 0.64 0.43 0.46 0.42 0.11 0.04 0.05 0.03 0.02 0.02 0.02 0.05 0.08 0.03 0.05 0.08 0.11 0.06 0.10 0.13 0.13 0.13 0.20 0.12 0.10 0.05 0.07 0.08 0.09 0.10 0.16 0.10 0.19 0.24 0.13 0.10 0.17 0.19 0.27 0.23 0.25 0.25 0.33 0.14 0.27 0.18 0.23 0.15 0.23 0.24 0.45 0.31 0.17 0.25 0.37 0.22 0.25 0.09 0.07 0.08 0.10 0.12 0.10 0.09 0.03 0.03 0.04 0.04 0.14 0.14 0.08 0.12 0.13 0.07 0.25 0.19 0.16
0.11 0.44 0.40 1.10 0.29 0.50 0.20 0.09 0.49 0.25 0.31 0.66 0.70 0.62 0.95 1.06 1.58 0.78 1.55 0.94 0.37 0.29 0.22 0.18 0.09 0.09 0.05 0.07 0.03 0.03 0.05 0.05 0.04 0.03 0.04 0.07 0.05 0.05 0.07 0.08 0.08 0.07 0.06 0.06 0.06 0.06 0.11 0.08 0.08 0.04 0.09 0.10 0.22 0.32 0.24 0.18 0.15 0.18 0.22 0.35 0.24 0.20 0.16 0.26 0.23 0.14 0.27 0.22 0.24 0.53 0.36 0.20 0.15 0.34 0.10 0.07 0.15 0.15 0.23 0.05 0.08 0.09 0.04 0.04 0.05 0.12 0.07 0.07 0.07 0.07 0.05 0.07 0.12 0.26 0.32 0.26 0.14
0.38 0.20 0.56 0.57 0.44 0.47 0.43 0.20 0.10 0.25 0.29 0.56 0.72 0.76 0.90 1.28 1.11 1.21 1.07 0.74 1.25 0.75 0.09 0.08 0.05 0.02 0.02 0.02 0.04 0.02 0.04 0.05 0.06 0.03 0.09 0.05 0.06 0.04 0.03 0.03 0.03 0.06 0.06 0.05 0.05 0.05 0.05 0.04 0.07 0.08 0.11 0.11 0.14 0.17 0.10 0.13 0.26 0.28 0.22 0.19 0.15 0.26 0.13 0.11 0.15 0.13 0.23 0.26 0.31 0.58 0.26 0.16 0.19 0.20 0.15 0.38 0.46 0.37 0.54 0.40 0.46 0.55 0.49 0.50 0.25 0.43 0.45 0.42 0.51 0.35 0.29 0.25 0.19 0.18 0.08 0.16 0.12
0.01 0.35 0.19 0.11 0.28 0.13 0.16 0.22 0.02 0.19 0.14 0.66 0.79 0.73 1.11 0.76 0.62 1.28 1.37 1.22 0.98 0.81 0.19 0.07 0.02 0.00 0.02 0.02 0.03 0.01 0.02 0.02 0.02 0.03 0.06 0.06 0.03 0.04 0.03 0.04 0.05 0.04 0.05 0.06 0.03 0.06 0.04 0.04 0.07 0.05 0.09 0.09 0.10 0.25 0.11 0.09 0.22 0.17 0.11 0.24 0.20 0.14 0.11 0.11 0.07 0.11 0.18 0.36 0.35 0.14 0.11 0.09 0.14 0.16 0.27 0.27 0.42 0.45 0.64 0.68 0.44 0.49 0.28 0.56 0.52 0.70 0.35 0.36 0.69 0.21 0.23 0.30 0.20 0.14 0.17 0.09 0.06
0.00 0.08 0.04 0.03 0.15 0.19 0.35 0.18 0.02 0.10 0.37 0.36 0.42 0.52 0.41 0.53 1.05 0.98 1.33 1.75 1.83 0.72 0.43 0.02 0.02 0.00 0.01 0.03 0.01 0.02 0.01 0.01 0.01 0.01 0.02 0.07 0.02 0.01 0.01 0.01 0.04 0.08 0.06 0.05 0.02 0.04 0.04 0.07 0.05 0.04 0.07 0.08 0.09 0.17 0.14 0.20 0.32 0.11 0.21 0.13 0.11 0.10 0.21 0.07 0.09 0.12 0.31 0.17 0.13 0.24 0.07 0.06 0.07 0.15 0.16 0.19 0.38 0.76 1.01 0.54 0.70 0.82 0.89 0.83 0.44 0.57 0.21 0.36 0.44 0.20 0.13 0.25 0.13 0.16 0.08 0.04 0.04
0.00 0.15 0.02 0.02 0.02 0.09 0.03 0.08 0.01 0.01 0.08 0.29 0.64 0.26 0.61 0.31 0.77 0.42 0.65 1.24 0.68 0.47 0.39 0.04 0.06 0.01 0.00 0.01 0.00 0.01 0.00 0.00 0.01 0.01 0.01 0.02 0.00 0.00 0.01 0.01 0.02 0.02 0.02 0.04 0.04 0.03 0.03 0.04 0.04 0.10 0.06 0.08 0.09 0.14 0.11 0.16 0.21 0.11 0.06 0.06 0.10 0.09 0.07 0.10 0.04 0.08 0.06 0.08 0.11 0.06 0.03 0.10 0.13 0.02 0.09 0.13 0.10 0.52 0.51 0.45 0.14 0.57 0.56 0.23 0.19 0.16 0.32 0.42 0.21 0.25 0.38 0.20 0.20 0.12 0.05 0.03 0.12
0.00 0.02 0.00 0.01 0.00 0.04 0.01 0.00 0.01 0.01 0.17 0.31 0.29 0.21 0.72 0.65 0.68 0.41 0.73 0.60 0.31 0.47 0.59 0.21 0.02 0.00 0.01 0.00 0.00 0.01 0.02 0.03 0.04 0.03 0.02 0.01 0.02 0.01 0.01 0.02 0.01 0.01 0.03 0.03 0.02 0.04 0.02 0.03 0.06 0.11 0.08 0.06 0.10 0.08 0.08 0.14 0.10 0.06 0.06 0.08 0.09 0.05 0.05 0.05 0.03 0.03 0.18 0.10 0.08 0.06 0.03 0.03 0.03 0.08 0.05 0.06 0.25 0.41 0.30 0.62 0.70 0.42 0.27 0.26 0.13 0.25 0.09 0.19 0.22 0.25 0.31 0.37 0.11 0.26 0.05 0.12 0.03
0.00 0.00 0.00 0.00 0.00 0.00 0.01 0.01 0.03 0.00 0.05 0.10 0.26 0.64 0.15 0.43 0.36 0.66 0.44 0.42 0.13 0.30 0.24 0.07 0.02 0.00 0.00 0.01 0.00 0.01 0.01 0.01 0.02 0.02 0.02 0.01 0.03 0.02 0.03 0.01 0.01 0.01 0.01 0.01 0.01 0.01 0.02 0.02 0.02 0.06 0.03 0.15 0.06 0.09 0.07 0.06 0.06 0.12 0.04 0.04 0.05 0.05 0.02 0.06 0.03 0.07 0.03 0.09 0.06 0.07 0.06 0.03 0.14 0.14 0.15 0.15 0.21 0.21 0.30 0.07 0.19 0.32 0.27 0.33 0.29 0.14 0.16 0.17 0.20 0.18 0.11 0.22 0.14 0.09 0.06 0.29 0.05
0.00 0.00 0.00 0.00 0.00 0.00 0.00 0.00 0.02 0.01 0.02 0.15 0.39 0.45 0.46 0.53 0.33 1.26 0.42 0.26 0.04 0.08 0.12 0.05 0.03 0.00 0.01 0.00 0.01 0.00 0.00 0.01 0.02 0.01 0.02 0.03 0.01 0.02 0.01 0.00 0.00 0.00 0.01 0.01 0.01 0.02 0.02 0.01 0.02 0.04 0.05 0.05 0.07 0.07 0.04 0.05 0.04 0.05 0.03 0.04 0.05 0.08 0.04 0.05 0.03 0.03 0.03 0.04 0.06 0.15 0.14 0.06 0.10 0.10 0.16 0.10 0.08 0.06 0.09 0.11 0.17 0.26 0.30 0.38 0.21 0.16 0.12 0.17 0.14 0.08 0.11 0.19 0.15 0.08 0.26 0.05 0.02
0.00 0.00 0.00 0.00 0.00 0.00 0.00 0.00 0.00 0.00 0.05 0.13 0.26 0.39 0.46 0.35 0.63 0.90 0.36 0.21 0.04 0.12 0.07 0.03 0.02 0.01 0.00 0.00 0.01 0.00 0.02 0.01 0.00 0.01 0.01 0.02 0.00 0.00 0.01 0.01 0.00 0.00 0.01 0.01 0.01 0.01 0.01 0.01 0.01 0.02 0.04 0.05 0.03 0.03 0.04 0.05 0.04 0.03 0.02 0.02 0.03 0.04 0.02 0.02 0.01 0.02 0.03 0.01 0.03 0.09 0.09 0.07 0.11 0.18 0.14 0.16 0.17 0.23 0.21 0.14 0.25 0.18 0.22 0.12 0.12 0.16 0.18 0.19 0.15 0.21 0.08 0.04 0.15 0.17 0.18 0.05 0.03
0.00 0.00 0.05 0.00 0.00 0.00 0.00 0.01 0.01 0.01 0.07 0.41 0.64 0.37 0.54 0.47 0.74 0.43 0.27 0.28 0.11 0.07 0.09 0.05 0.04 0.02 0.01 0.00 0.00 0.01 0.01 0.01 0.01 0.00 0.00 0.00 0.00 0.00 0.00 0.00 0.00 0.00 0.00 0.00 0.00 0.00 0.01 0.01 0.02 0.02 0.02 0.03 0.03 0.03 0.03 0.02 0.06 0.02 0.05 0.01 0.02 0.02 0.02 0.01 0.04 0.01 0.00 0.01 0.04 0.03 0.16 0.11 0.36 0.20 0.14 0.06 0.05 0.14 0.19 0.22 0.11 0.08 0.16 0.25 0.06 0.09 0.12 0.12 0.16 0.23 0.32 0.09 0.13 0.12 0.06 0.02 0.02
0.00 0.00 0.00 0.01 0.00 0.01 0.00 0.00 0.01 0.07 0.12 0.53 0.31 0.82 0.64 0.48 0.30 0.43 0.15 0.07 0.15 0.07 0.05 0.07 0.03 0.02 0.01 0.00 0.00 0.00 0.00 0.02 0.01 0.00 0.00 0.00 0.00 0.00 0.00 0.00 0.00 0.00 0.00 0.01 0.01 0.00 0.01 0.01 0.01 0.02 0.02 0.02 0.02 0.03 0.01 0.03 0.02 0.01 0.02 0.01 0.01 0.01 0.02 0.04 0.01 0.00 0.01 0.01 0.02 0.09 0.05 0.09 0.10 0.12 0.08 0.08 0.08 0.09 0.09 0.15 0.10 0.09 0.09 0.08 0.07 0.12 0.26 0.18 0.18 0.12 0.11 0.09 0.10 0.09 0.04 0.03 0.04
0.00 0.00 0.01 0.01 0.00 0.06 0.01 0.03 0.02 0.32 0.11 0.23 0.31 1.02 0.93 0.62 0.60 0.54 0.42 0.20 0.20 0.11 0.14 0.08 0.08 0.05 0.02 0.01 0.01 0.01 0.00 0.01 0.01 0.00 0.00 0.00 0.00 0.00 0.00 0.00 0.00 0.00 0.00 0.00 0.00 0.00 0.01 0.00 0.00 0.01 0.01 0.02 0.02 0.02 0.01 0.01 0.01 0.01 0.00 0.01 0.01 0.03 0.01 0.01 0.00 0.01 0.06 0.06 0.02 0.07 0.09 0.08 0.06 0.11 0.09 0.11 0.08 0.14 0.15 0.06 0.11 0.09 0.06 0.11 0.14 0.08 0.20 0.15 0.15 0.18 0.06 0.08 0.06 0.04 0.04 0.03 0.01
0.00 0.01 0.05 0.00 0.00 0.04 0.01 0.02 0.02 0.47 0.16 0.26 0.25 0.94 0.54 0.50 0.65 0.70 0.51 0.17 0.58 0.34 0.37 0.10 0.07 0.08 0.07 0.03 0.01 0.02 0.01 0.01 0.01 0.00 0.00 0.00 0.00 0.01 0.00 0.00 0.00 0.00 0.00 0.00 0.00 0.00 0.01 0.00 0.00 0.00 0.00 0.02 0.02 0.01 0.00 0.00 0.01 0.01 0.01 0.00 0.01 0.03 0.02 0.03 0.02 0.01 0.03 0.04 0.07 0.06 0.08 0.13 0.09 0.12 0.12 0.12 0.10 0.10 0.13 0.33 0.14 0.20 0.09 0.13 0.22 0.17 0.12 0.20 0.28 0.21 0.12 0.16 0.04 0.04 0.02 0.03 0.01
0.00 0.00 0.01 0.05 0.00 0.02 0.01 0.04 0.04 0.29 0.13 0.28 0.17 0.63 0.45 0.55 0.43 0.47 0.40 0.36 0.27 0.34 0.31 0.18 0.06 0.05 0.03 0.02 0.03 0.02 0.01 0.00 0.00 0.00 0.00 0.00 0.01 0.00 0.00 0.00 0.00 0.00 0.00 0.00 0.00 0.00 0.00 0.00 0.00 0.01 0.01 0.01 0.01 0.01 0.00 0.00 0.01 0.01 0.01 0.01 0.00 0.01 0.03 0.01 0.08 0.04 0.03 0.03 0.06 0.03 0.07 0.07 0.07 0.06 0.10 0.11 0.10 0.13 0.09 0.09 0.15 0.15 0.13 0.15 0.08 0.20 0.25 0.10 0.40 0.11 0.09 0.07 0.03 0.04 0.02 0.03 0.02
0.00 0.00 0.03 0.01 0.01 0.01 0.03 0.07 0.03 0.03 0.07 0.23 0.08 0.63 0.54 0.50 0.26 0.29 0.69 0.91 0.35 0.37 0.36 0.21 0.20 0.09 0.02 0.05 0.02 0.05 0.02 0.01 0.02 0.00 0.00 0.00 0.00 0.00 0.00 0.00 0.00 0.00 0.00 0.00 0.00 0.00 0.00 0.00 0.00 0.00 0.01 0.01 0.00 0.01 0.00 0.01 0.01 0.01 0.01 0.02 0.01 0.03 0.02 0.02 0.02 0.03 0.02 0.03 0.06 0.03 0.04 0.05 0.05 0.09 0.14 0.14 0.13 0.08 0.14 0.12 0.26 0.26 0.21 0.16 0.18 0.12 0.40 0.18 0.08 0.12 0.20 0.09 0.04 0.05 0.03 0.03 0.02
0.00 0.00 0.01 0.02 0.00 0.00 0.02 0.04 0.14 0.03 0.21 0.24 0.04 0.57 0.53 0.31 0.21 0.71 1.05 0.98 0.61 0.56 0.45 0.24 0.13 0.29 0.34 0.07 0.00 0.02 0.03 0.00 0.03 0.01 0.01 0.00 0.00 0.00 0.00 0.00 0.00 0.00 0.00 0.00 0.00 0.00 0.00 0.00 0.00 0.00 0.00 0.01 0.01 0.00 0.00 0.00 0.01 0.01 0.00 0.01 0.01 0.02 0.02 0.02 0.01 0.01 0.02 0.01 0.02 0.02 0.03 0.06 0.08 0.10 0.14 0.10 0.07 0.14 0.08 0.11 0.11 0.13 0.08 0.21 0.16 0.20 0.26 0.24 0.20 0.09 0.08 0.10 0.03 0.05 0.03 0.01 0.00
0.00 0.00 0.01 0.00 0.00 0.00 0.04 0.01 0.01 0.02 0.03 0.55 0.11 0.32 0.29 0.23 0.64 0.45 0.29 0.88 0.64 0.54 0.83 0.38 0.36 0.07 0.23 0.19 0.10 0.03 0.00 0.03 0.01 0.02 0.00 0.00 0.00 0.00 0.00 0.00 0.00 0.00 0.00 0.00 0.00 0.00 0.00 0.00 0.00 0.00 0.00 0.00 0.01 0.00 0.01 0.02 0.03 0.00 0.01 0.01 0.02 0.01 0.01 0.02 0.02 0.01 0.03 0.03 0.01 0.01 0.02 0.07 0.03 0.11 0.06 0.09 0.15 0.18 0.31 0.07 0.24 0.18 0.15 0.16 0.42 0.20 0.26 0.30 0.18 0.26 0.08 0.12 0.09 0.04 0.02 0.01 0.00
0.00 0.00 0.00 0.00 0.00 0.01 0.00 0.01 0.01 0.02 0.05 0.13 0.26 0.26 0.27 0.24 0.55 0.28 0.36 0.49 0.97 0.72 0.65 0.59 0.90 0.20 0.12 0.16 0.45 0.07 0.07 0.04 0.01 0.02 0.01 0.00 0.00 0.00 0.00 0.00 0.00 0.00 0.00 0.00 0.00 0.00 0.00 0.00 0.00 0.00 0.00 0.00 0.00 0.00 0.04 0.01 0.01 0.00 0.00 0.01 0.02 0.02 0.03 0.02 0.03 0.02 0.01 0.02 0.00 0.01 0.01 0.05 0.04 0.03 0.05 0.09 0.05 0.09 0.12 0.15 0.18 0.17 0.15 0.24 0.24 0.30 0.17 0.28 0.13 0.18 0.11 0.06 0.07 0.03 0.02 0.00 0.00
0.00 0.00 0.00 0.00 0.01 0.00 0.00 0.01 0.02 0.00 0.04 0.13 0.11 0.12 0.07 0.16 0.32 0.26 0.24 0.33 0.51 0.81 0.76 0.80 0.55 0.34 0.36 0.44 0.30 0.11 0.10 0.05 0.02 0.02 0.01 0.01 0.00 0.01 0.00 0.00 0.00 0.00 0.00 0.00 0.00 0.00 0.00 0.00 0.00 0.00 0.00 0.00 0.00 0.00 0.01 0.02 0.00 0.00 0.00 0.00 0.00 0.03 0.02 0.01 0.03 0.02 0.06 0.03 0.01 0.01 0.02 0.02 0.01 0.02 0.04 0.07 0.09 0.08 0.11 0.11 0.16 0.23 0.17 0.20 0.18 0.29 0.20 0.19 0.08 0.15 0.11 0.10 0.05 0.06 0.02 0.01 0.00
0.00 0.01 0.01 0.00 0.00 0.00 0.00 0.00 0.01 0.04 0.01 0.23 0.02 0.09 0.16 0.04 0.10 0.11 0.08 0.18 0.32 0.25 0.34 0.38 0.76 0.77 0.55 0.43 0.64 0.48 0.11 0.05 0.03 0.02 0.03 0.01 0.00 0.00 0.00 0.00 0.00 0.00 0.00 0.00 0.00 0.00 0.00 0.00 0.00 0.00 0.00 0.00 0.00 0.00 0.00 0.00 0.00 0.00 0.00 0.00 0.00 0.02 0.00 0.01 0.03 0.02 0.02 0.02 0.02 0.00 0.02 0.07 0.01 0.01 0.02 0.04 0.03 0.10 0.12 0.18 0.16 0.24 0.11 0.15 0.13 0.08 0.09 0.12 0.19 0.13 0.07 0.12 0.04 0.02 0.02 0.00 0.00
0.00 0.00 0.00 0.01 0.00 0.00 0.01 0.00 0.00 0.00 0.00 0.03 0.00 0.02 0.03 0.04 0.02 0.15 0.03 0.08 0.24 0.06 0.13 0.33 0.64 0.73 0.24 0.17 0.32 0.41 0.40 0.05 0.04 0.01 0.01 0.00 0.02 0.01 0.00 0.00 0.00 0.00 0.00 0.00 0.00 0.00 0.00 0.00 0.00 0.00 0.00 0.00 0.00 0.00 0.00 0.00 0.00 0.00 0.00 0.00 0.00 0.01 0.03 0.01 0.01 0.01 0.02 0.06 0.02 0.01 0.01 0.02 0.04 0.04 0.07 0.08 0.14 0.12 0.08 0.12 0.10 0.12 0.08 0.13 0.16 0.22 0.12 0.12 0.10 0.15 0.10 0.05 0.03 0.08 0.06 0.01 0.00
0.00 0.00 0.00 0.00 0.00 0.00 0.00 0.00 0.00 0.00 0.00 0.00 0.00 0.02 0.01 0.00 0.05 0.06 0.08 0.01 0.10 0.10 0.07 0.12 0.49 0.55 0.56 0.35 0.16 0.30 0.49 0.37 0.09 0.04 0.00 0.01 0.00 0.01 0.00 0.00 0.00 0.00 0.00 0.00 0.00 0.00 0.00 0.00 0.00 0.00 0.00 0.00 0.00 0.00 0.00 0.00 0.03 0.02 0.01 0.00 0.01 0.01 0.00 0.01 0.01 0.02 0.03 0.03 0.01 0.02 0.02 0.04 0.02 0.04 0.03 0.05 0.06 0.05 0.07 0.11 0.07 0.08 0.08 0.04 0.07 0.08 0.14 0.10 0.08 0.08 0.06 0.08 0.03 0.07 0.05 0.02 0.01
0.00 0.00 0.00 0.00 0.00 0.00 0.00 0.00 0.00 0.00 0.00 0.00 0.00 0.03 0.02 0.01 0.02 0.03 0.00 0.03 0.11 0.05 0.04 0.10 0.31 0.57 0.44 0.23 0.16 0.23 0.40 0.36 0.12 0.10 0.02 0.00 0.01 0.04 0.00 0.00 0.00 0.00 0.00 0.00 0.00 0.00 0.00 0.00 0.00 0.00 0.00 0.00 0.00 0.00 0.00 0.00 0.02 0.00 0.01 0.04 0.06 0.01 0.05 0.01 0.01 0.01 0.01 0.01 0.04 0.02 0.03 0.07 0.03 0.04 0.02 0.01 0.03 0.03 0.06 0.09 0.03 0.06 0.11 0.06 0.09 0.09 0.07 0.06 0.04 0.06 0.04 0.03 0.03 0.01 0.05 0.06 0.02
0.00 0.00 0.00 0.00 0.00 0.00 0.00 0.00 0.00 0.00 0.01 0.00 0.00 0.00 0.06 0.01 0.05 0.07 0.03 0.01 0.03 0.05 0.02 0.09 0.29 0.60 0.33 0.19 0.20 0.25 0.28 0.28 0.23 0.09 0.04 0.04 0.01 0.01 0.00 0.00 0.00 0.00 0.00 0.00 0.01 0.00 0.00 0.00 0.00 0.00 0.00 0.00 0.00 0.00 0.00 0.00 0.00 0.00 0.01 0.02 0.01 0.01 0.01 0.01 0.01 0.01 0.01 0.00 0.01 0.00 0.05 0.06 0.04 0.03 0.09 0.02 0.03 0.03 0.07 0.06 0.05 0.05 0.03 0.05 0.04 0.02 0.05 0.07 0.09 0.03 0.01 0.01 0.02 0.03 0.01 0.04 0.01
0.00 0.00 0.00 0.00 0.00 0.00 0.00 0.00 0.00 0.00 0.00 0.00 0.00 0.00 0.08 0.09 0.05 0.03 0.09 0.05 0.05 0.08 0.04 0.29 0.65 0.38 0.24 0.22 0.21 0.26 0.36 0.13 0.18 0.09 0.07 0.02 0.02 0.01 0.00 0.00 0.01 0.00 0.00 0.00 0.01 0.00 0.00 0.00 0.00 0.00 0.00 0.00 0.00 0.00 0.00 0.00 0.00 0.01 0.03 0.01 0.00 0.00 0.00 0.00 0.00 0.00 0.00 0.00 0.02 0.01 0.01 0.03 0.01 0.02 0.02 0.01 0.08 0.02 0.02 0.07 0.07 0.07 0.02 0.04 0.02 0.06 0.04 0.06 0.06 0.04 0.02 0.05 0.03 0.03 0.03 0.02 0.14
0.00 0.00 0.00 0.00 0.00 0.00 0.00 0.00 0.00 0.00 0.00 0.02 0.00 0.00 0.03 0.04 0.11 0.02 0.35 0.22 0.07 0.07 0.19 0.67 0.50 0.44 0.19 0.16 0.24 0.35 0.44 0.30 0.16 0.15 0.15 0.08 0.02 0.01 0.01 0.00 0.02 0.00 0.00 0.00 0.00 0.00 0.00 0.00 0.00 0.00 0.00 0.00 0.00 0.00 0.00 0.00 0.00 0.01 0.00 0.01 0.00 0.00 0.00 0.00 0.00 0.00 0.00 0.00 0.00 0.01 0.01 0.01 0.01 0.01 0.01 0.03 0.02 0.00 0.01 0.05 0.07 0.05 0.04 0.04 0.01 0.03 0.04 0.03 0.03 0.03 0.04 0.03 0.02 0.03 0.01 0.02 0.01
0.00 0.00 0.00 0.00 0.00 0.00 0.00 0.00 0.00 0.00 0.00 0.00 0.00 0.00 0.01 0.19 0.13 0.05 0.19 0.25 0.07 0.04 0.04 0.31 0.16 0.72 0.28 0.12 0.19 0.36 0.29 0.21 0.28 0.37 0.14 0.33 0.06 0.07 0.01 0.02 0.00 0.00 0.01 0.01 0.00 0.00 0.00 0.00 0.00 0.00 0.00 0.00 0.00 0.00 0.00 0.00 0.00 0.00 0.01 0.00 0.00 0.00 0.00 0.00 0.00 0.00 0.00 0.00 0.01 0.00 0.01 0.01 0.01 0.01 0.03 0.00 0.01 0.05 0.01 0.03 0.05 0.07 0.03 0.05 0.01 0.17 0.05 0.02 0.03 0.02 0.03 0.03 0.03 0.03 0.03 0.02 0.01
0.00 0.00 0.00 0.00 0.00 0.00 0.00 0.00 0.00 0.00 0.00 0.00 0.00 0.00 0.01 0.16 0.19 0.09 0.23 0.18 0.08 0.02 0.04 0.06 0.02 0.17 0.32 0.22 0.16 0.24 0.35 0.41 0.32 0.23 0.49 0.11 0.06 0.04 0.02 0.02 0.01 0.00 0.02 0.04 0.04 0.02 0.02 0.00 0.00 0.01 0.00 0.00 0.00 0.00 0.00 0.00 0.00 0.00 0.00 0.00 0.00 0.00 0.00 0.01 0.00 0.00 0.00 0.00 0.00 0.01 0.01 0.01 0.02 0.01 0.01 0.02 0.05 0.02 0.00 0.02 0.02 0.01 0.07 0.03 0.07 0.07 0.02 0.03 0.05 0.08 0.02 0.04 0.03 0.05 0.03 0.02 0.01
0.00 0.00 0.00 0.00 0.00 0.00 0.00 0.00 0.00 0.00 0.00 0.00 0.00 0.00 0.00 0.03 0.17 0.05 0.00 0.00 0.00 0.00 0.03 0.01 0.04 0.03 0.07 0.39 0.27 0.12 0.25 0.26 0.37 0.34 0.27 0.19 0.16 0.18 0.06 0.04 0.04 0.03 0.03 0.02 0.06 0.09 0.04 0.05 0.03 0.00 0.00 0.00 0.00 0.00 0.00 0.00 0.00 0.00 0.00 0.00 0.00 0.00 0.00 0.00 0.01 0.00 0.00 0.00 0.00 0.00 0.01 0.00 0.01 0.00 0.00 0.04 0.01 0.02 0.03 0.00 0.00 0.02 0.04 0.05 0.03 0.02 0.05 0.05 0.04 0.02 0.04 0.03 0.04 0.03 0.04 0.04 0.04
0.00 0.00 0.00 0.00 0.00 0.00 0.00 0.00 0.00 0.00 0.00 0.00 0.00 0.00 0.00 0.02 0.07 0.01 0.00 0.00 0.00 0.00 0.00 0.01 0.01 0.00 0.04 0.30 0.28 0.11 0.10 0.12 0.27 0.39 0.34 0.17 0.12 0.09 0.06 0.05 0.02 0.03 0.04 0.02 0.03 0.05 0.07 0.03 0.04 0.02 0.00 0.00 0.00 0.00 0.00 0.00 0.00 0.00 0.00 0.00 0.00 0.00 0.00 0.00 0.01 0.00 0.00 0.00 0.00 0.00 0.00 0.00 0.00 0.01 0.01 0.00 0.03 0.00 0.00 0.00 0.00 0.01 0.01 0.05 0.03 0.04 0.05 0.05 0.08 0.04 0.04 0.02 0.02 0.03 0.04 0.03 0.02
0.00 0.00 0.00 0.00 0.00 0.00 0.00 0.00 0.00 0.00 0.00 0.00 0.00 0.00 0.11 0.04 0.02 0.00 0.00 0.00 0.00 0.00 0.00 0.00 0.00 0.01 0.07 0.06 0.09 0.10 0.06 0.08 0.19 0.31 0.33 0.37 0.10 0.18 0.07 0.07 0.07 0.02 0.06 0.01 0.02 0.02 0.02 0.03 0.04 0.05 0.01 0.00 0.00 0.00 0.00 0.00 0.00 0.00 0.00 0.00 0.00 0.00 0.00 0.00 0.01 0.01 0.00 0.00 0.00 0.00 0.00 0.00 0.00 0.00 0.01 0.00 0.00 0.01 0.04 0.00 0.00 0.00 0.00 0.01 0.02 0.03 0.04 0.03 0.05 0.12 0.03 0.02 0.03 0.02 0.02 0.02 0.05
0.00 0.00 0.00 0.00 0.00 0.00 0.00 0.00 0.00 0.00 0.01 0.00 0.00 0.00 0.07 0.05 0.01 0.04 0.00 0.00 0.00 0.00 0.00 0.00 0.00 0.00 0.00 0.18 0.13 0.17 0.09 0.13 0.07 0.15 0.30 0.14 0.11 0.08 0.18 0.11 0.09 0.09 0.03 0.03 0.02 0.02 0.13 0.05 0.05 0.03 0.05 0.05 0.01 0.00 0.00 0.00 0.00 0.00 0.00 0.00 0.00 0.00 0.00 0.00 0.00 0.00 0.00 0.00 0.00 0.00 0.00 0.00 0.00 0.00 0.00 0.02 0.02 0.00 0.00 0.00 0.00 0.00 0.00 0.00 0.01 0.01 0.02 0.03 0.03 0.03 0.06 0.02 0.02 0.01 0.01 0.01 0.05
0.00 0.00 0.00 0.00 0.00 0.00 0.00 0.00 0.00 0.00 0.00 0.00 0.00 0.13 0.21 0.15 0.00 0.00 0.00 0.00 0.00 0.00 0.00 0.00 0.02 0.02 0.10 0.16 0.05 0.13 0.11 0.06 0.19 0.27 0.32 0.18 0.12 0.19 0.12 0.24 0.12 0.10 0.06 0.05 0.05 0.04 0.03 0.04 0.08 0.12 0.05 0.03 0.05 0.01 0.00 0.00 0.00 0.00 0.00 0.00 0.00 0.00 0.00 0.00 0.01 0.00 0.00 0.00 0.00 0.00 0.00 0.00 0.00 0.01 0.00 0.01 0.00 0.01 0.00 0.00 0.00 0.00 0.00 0.00 0.01 0.01 0.01 0.02 0.02 0.05 0.02 0.03 0.04 0.02 0.01 0.01 0.02
0.00 0.00 0.00 0.00 0.00 0.00 0.00 0.00 0.00 0.00 0.00 0.00 0.00 0.01 0.02 0.00 0.00 0.00 0.01 0.00 0.00 0.00 0.00 0.00 0.00 0.00 0.01 0.01 0.03 0.03 0.14 0.14 0.08 0.34 0.26 0.29 0.39 0.11 0.28 0.21 0.22 0.24 0.21 0.32 0.22 0.25 0.08 0.04 0.12 0.13 0.22 0.16 0.03 0.04 0.01 0.00 0.00 0.00 0.00 0.00 0.00 0.00 0.00 0.00 0.00 0.00 0.00 0.01 0.01 0.00 0.01 0.00 0.00 0.00 0.00 0.00 0.00 0.00 0.00 0.00 0.00 0.01 0.00 0.00 0.00 0.00 0.01 0.01 0.03 0.05 0.02 0.02 0.03 0.02 0.01 0.01 0.01
0.00 0.00 0.00 0.00 0.00 0.00 0.00 0.00 0.00 0.00 0.00 0.00 0.00 0.03 0.05 0.02 0.15 0.02 0.00 0.00 0.00 0.00 0.00 0.00 0.00 0.00 0.01 0.00 0.00 0.01 0.13 0.33 0.16 0.20 0.34 0.17 0.43 0.38 0.54 0.15 0.23 0.07 0.16 0.45 0.51 0.60 0.72 0.66 0.52 0.20 0.20 0.27 0.10 0.05 0.05 0.03 0.02 0.00 0.00 0.00 0.00 0.00 0.00 0.00 0.00 0.00 0.00 0.01 0.01 0.00 0.01 0.00 0.00 0.00 0.00 0.01 0.00 0.00 0.00 0.00 0.00 0.00 0.00 0.00 0.00 0.01 0.01 0.01 0.02 0.06 0.06 0.05 0.05 0.02 0.02 0.04 0.02
0.00 0.00 0.00 0.00 0.00 0.00 0.00 0.00 0.00 0.00 0.00 0.01 0.01 0.05 0.02 0.07 0.09 0.00 0.04 0.01 0.00 0.00 0.00 0.00 0.00 0.00 0.00 0.00 0.00 0.00 0.02 0.03 0.23 0.34 0.27 0.12 0.10 0.28 0.36 0.44 0.20 0.25 0.32 0.20 0.49 0.61 0.69 0.45 0.25 0.48 0.34 0.29 0.06 0.06 0.08 0.04 0.08 0.03 0.00 0.00 0.00 0.00 0.00 0.00 0.00 0.00 0.00 0.00 0.00 0.00 0.00 0.01 0.00 0.00 0.00 0.00 0.00 0.00 0.00 0.00 0.00 0.00 0.00 0.00 0.00 0.00 0.00 0.01 0.01 0.02 0.02 0.04 0.01 0.01 0.02 0.02 0.04
0.00 0.00 0.00 0.00 0.00 0.00 0.00 0.00 0.04 0.00 0.00 0.00 0.26 0.05 0.35 0.10 0.11 0.04 0.03 0.02 0.00 0.00 0.00 0.00 0.00 0.00 0.00 0.00 0.00 0.00 0.00 0.03 0.13 0.16 0.11 0.10 0.13 0.18 0.42 0.39 0.41 0.41 0.71 0.65 0.98 0.33 0.19 0.41 0.28 0.39 0.69 0.62 0.18 0.13 0.05 0.09 0.11 0.05 0.02 0.01 0.00 0.00 0.00 0.00 0.00 0.00 0.00 0.00 0.00 0.05 0.00 0.01 0.00 0.00 0.00 0.00 0.00 0.00 0.00 0.00 0.00 0.00 0.00 0.00 0.00 0.00 0.01 0.01 0.01 0.01 0.00 0.01 0.00 0.00 0.00 0.01 0.01
0.00 0.00 0.00 0.00 0.00 0.00 0.00 0.00 0.02 0.01 0.02 0.00 0.04 0.08 0.09 0.09 0.13 0.32 0.01 0.00 0.00 0.00 0.00 0.00 0.00 0.00 0.00 0.00 0.00 0.00 0.00 0.01 0.02 0.03 0.10 0.10 0.04 0.12 0.15 0.22 0.38 0.45 0.55 0.56 0.83 0.59 0.32 0.25 0.28 0.16 0.06 0.25 0.11 0.12 0.13 0.15 0.12 0.08 0.06 0.01 0.04 0.00 0.00 0.00 0.00 0.00 0.03 0.00 0.00 0.03 0.03 0.05 0.02 0.00 0.00 0.00 0.00 0.00 0.00 0.00 0.00 0.00 0.00 0.00 0.00 0.00 0.00 0.00 0.00 0.00 0.00 0.00 0.00 0.01 0.00 0.00 0.00
0.00 0.00 0.00 0.00 0.00 0.00 0.00 0.00 0.00 0.00 0.00 0.00 0.02 0.17 0.05 0.02 0.11 0.07 0.03 0.00 0.00 0.00 0.00 0.00 0.00 0.00 0.00 0.00 0.00 0.00 0.00 0.00 0.00 0.02 0.01 0.00 0.01 0.08 0.44 0.35 0.16 0.11 0.24 0.81 0.58 0.85 0.54 0.26 0.17 0.28 0.17 0.58 0.16 0.39 0.24 0.13 0.27 0.32 0.38 0.28 0.32 0.20 0.00 0.00 0.00 0.00 0.00 0.00 0.00 0.04 0.01 0.00 0.00 0.01 0.00 0.00 0.00 0.00 0.01 0.00 0.00 0.00 0.01 0.00 0.00 0.00 0.00 0.00 0.00 0.00 0.00 0.00 0.00 0.00 0.00 0.00 0.00